Location: Kui Tatk
(32.0384°N, 112.0812°W)
Time: 19:27:02
(UTC+00:00)

X-37B - Visible Passes

Search period start: 13 May 2021 00:00
Search period end: 23 May 2021 00:00
Orbit: 386 x 389 km, 45.0° (Epoch: 08 May)

Date Brightness Start Highest point End Pass type
(mag) Time Alt. Az. Time Alt. Az. Time Alt. Az.
13 May 2.5 04:20:18 10° NW 04:22:27 27° N 04:22:27 27° N visible
14 May 2.8 03:22:16 10° NNW 03:24:39 19° NNE 03:26:35 12° ENE visible
14 May 3.8 04:58:20 10° WNW 04:58:52 14° WNW 04:58:52 14° WNW visible
15 May 0.8 03:59:57 10° NW 04:03:02 61° NNE 04:03:02 61° NNE visible
16 May 1.9 03:01:46 10° NW 03:04:40 31° NNE 03:07:14 12° E visible
16 May 3.3 04:38:33 10° W 04:39:31 16° W 04:39:31 16° W visible
17 May 0.9 03:39:49 10° WNW 03:42:57 56° SW 03:43:47 40° SSE visible
18 May 3.4 04:19:45 10° WSW 04:20:25 11° SW 04:20:25 11° SW visible
19 May 2.4 03:20:02 10° W 03:22:42 24° SW 03:24:49 13° S visible
21 May 3.4 03:01:18 10° WSW 03:02:21 11° SW 03:03:25 10° SSW visible
